Tracking 18980 objects as of 18-Feb-2018
HD Live streaming from Space Station
objects crossing your sky now

FENGYUN 1C DEB

Track FENGYUN 1C DEB now!
10-day predictions


NORAD ID: 31077
Int'l Code: 1999-025BFX
Perigee: 595.6 km
Apogee: 748.7 km
Inclination: 99.0 °
Period: 98.0 minutes
Semi major axis: 7043 km
RCS: 0.0141 m2 (small)
Launch date: May 10, 1999
Source: People's Republic of China (PRC)
Launch site: Taiyaun Space Center, China (TSC)

Note: This is SATELLITE DEBRIS
aabbcc
Your satellite tracking list
Your tracking list is empty




NASA's NSSDC Master Catalog

Two Line Element Set (TLE):
1 31077U 99025BFX 18048.79678437 +.00000671 +00000-0 +11584-3 0  9991
2 31077 099.0072 033.0225 0108652 344.4010 015.3853 14.68772087580187
Source of the keplerian elements: AFSPC